Torna al catalogo

STARLINK-3146

AttivoComunicazioniVLEO
NORAD 49414·PAYLOAD·🇺🇸 United States

Lanciato Nov 13, 2021 da Cape Canaveral Space Force Station

Loading…

Prossimi Passaggi (prossime 24 ore)

TLE

AggiornatoSource: CelesTrak SupGP

Epoca: Sep 14, 2026, 21:05 UTC

1 49414C 21104G   26257.87895833 -.00007069  00000+0 -21454-3 0  2572
2 49414  53.1576  88.1043 0001364  84.1322 108.7476 15.33544986    11

Traccia STARLINK-3146 in tempo reale con AllMySat

Download on the App Store